CW3577 Weather Reports


Display with metric or nautical units.
time (UTC)temp
F
wind
direction
speed
MPH
gust
MPH
rain 1hr
in
rain 24hr
in
rain mn
in
humidity
%
barometer
mb
20260505101514 54 204 4.0 9.0 0.00 0.00 0.00 73 1009.7
20260505100038 54 163 4.0 11.0 0.00 0.00 0.00 73 1009.7
20260505094550 53 200 3.0 7.0 0.00 0.00 0.00 74 1009.7
20260505093018 52 180 2.0 7.0 0.00 0.00 0.00 76 1009.7
20260505091542 49 178 2.0 4.0 0.00 0.00 0.00 80 1009.7
20260505090100 49 163 1.0 3.0 0.00 0.00 0.00 81 1009.7
20260505084526 48 164 1.0 3.0 0.00 0.00 0.00 82 1009.8
20260505083046 48 165 1.0 2.0 0.00 0.00 0.00 82 1009.9
20260505081508 48 165 0.0 2.0 0.00 0.00 0.00 81 1010.0
20260505080032 48 165 0.0 3.0 0.00 0.00 0.00 79 1009.9
20260505074552 49 165 1.0 2.0 0.00 0.00 0.00 79 1010.1
20260505073014 49 165 1.0 3.0 0.00 0.00 0.00 78 1010.1
20260505071547 49 158 0.0 6.0 0.00 0.00 0.00 79 1010.1
20260505064522 50 165 0.0 3.0 0.00 0.00 0.00 76 1010.2
20260505063040 50 165 0.0 2.0 0.00 0.00 0.00 75 1010.3
20260505061511 51 165 0.0 2.0 0.00 0.00 0.00 73 1010.3
20260505060040 52 165 0.0 2.0 0.00 0.00 0.00 71 1010.4
20260505054548 53 165 1.0 3.0 0.00 0.00 0.00 68 1010.5
20260505053012 54 166 1.0 3.0 0.00 0.00 0.00 65 1010.5
20260505051535 55 167 1.0 3.0 0.00 0.00 0.00 63 1010.4
20260505050104 55 167 2.0 5.0 0.00 0.00 0.00 61 1010.6
20260505041506 57 190 4.0 8.0 0.00 0.00 0.00 57 1010.5
20260505040026 57 188 3.0 6.0 0.00 0.00 0.00 56 1010.4
20260505034549 58 178 1.0 7.0 0.00 0.00 0.00 55 1010.2
20260505033004 58 157 2.0 6.0 0.00 0.00 0.00 53 1010.2
20260505031522 59 184 6.0 9.0 0.00 0.00 0.00 52 1010.2
20260505030048 60 200 3.0 12.0 0.00 0.00 0.00 51 1010.2
20260505024511 60 162 5.0 9.0 0.00 0.00 0.00 50 1010.1
20260505023037 60 181 6.0 10.0 0.00 0.00 0.00 50 1010.1
20260505021558 60 174 6.0 10.0 0.00 0.00 0.00 49 1010.3
20260505020024 61 190 2.0 7.0 0.00 0.00 0.00 48 1010.2
20260505014544 62 171 5.0 9.0 0.00 0.00 0.00 47 1009.9
20260505013009 62 189 4.0 17.0 0.00 0.00 0.00 46 1009.9
20260505011536 63 201 4.0 10.0 0.00 0.00 0.00 46 1009.6
20260505010110 63 290 3.0 16.0 0.00 0.00 0.00 44 1009.3
20260505004524 64 200 6.0 15.0 0.00 0.00 0.00 43 1009.0
20260505003045 65 209 4.0 11.0 0.00 0.00 0.00 42 1008.5
20260505001514 66 184 6.0 14.0 0.00 0.00 0.00 40 1008.1
20260505000050 66 186 4.0 10.0 0.00 0.00 0.00 37 1007.9
20260504234504 68 196 1.0 6.0 0.00 0.00 0.00 35 1007.4
20260504233026 68 258 4.0 9.0 0.00 0.00 0.00 34 1007.1
20260504231545 69 208 3.0 10.0 0.00 0.00 0.00 32 1007.0
20260504230004 69 259 1.0 8.0 0.00 0.00 0.00 33 1006.9
20260504224529 70 234 3.0 7.0 0.00 0.00 0.00 32 1006.7
20260504223054 70 212 3.0 14.0 0.00 0.00 0.00 32 1006.5
20260504221511 71 236 6.0 13.0 0.00 0.00 0.00 31 1006.5
20260504220042 72 243 3.0 12.0 0.00 0.00 0.00 31 1006.5
20260504214613 72 244 6.0 14.0 0.00 0.00 0.00 29 1006.7
20260504213028 71 193 4.0 15.0 0.00 0.00 0.00 31 1006.7
20260504211551 72 192 5.0 17.0 0.00 0.00 0.00 30 1006.7
20260504210011 73 208 7.0 14.0 0.00 0.00 0.00 29 1006.6
20260504204529 72 232 5.0 14.0 0.00 0.00 0.00 31 1006.6
20260504203053 72 217 6.0 15.0 0.00 0.00 0.00 30 1006.7
20260504201511 72 188 3.0 10.0 0.00 0.00 0.00 30 1006.6
20260504200037 71 225 5.0 24.0 0.00 0.00 0.00 29 1006.6
20260504194611 72 205 6.0 20.0 0.00 0.00 0.00 29 1006.7
20260504194501 72 244 6.0 20.0 0.00 0.00 0.00 28 1006.7
20260504193025 72 292 3.0 21.0 0.00 0.00 0.00 29 1006.7
20260504191548 72 232 4.0 15.0 0.00 0.00 0.00 29 1006.7
20260504190005 72 280 7.0 26.0 0.00 0.00 0.00 30 1007.0
20260504184534 72 157 8.0 18.0 0.00 0.00 0.00 28 1007.2
20260504183045 71 238 5.0 19.0 0.00 0.00 0.00 28 1007.5
20260504181517 71 207 9.0 20.0 0.00 0.00 0.00 30 1007.4
20260504180031 71 260 6.0 28.0 0.00 0.00 0.00 28 1007.5
20260504174545 71 249 8.0 24.0 0.00 0.00 0.00 30 1007.5
20260504173005 70 213 8.0 15.0 0.00 0.00 0.00 28 1007.7
20260504171533 70 240 7.0 16.0 0.00 0.00 0.00 29 1007.8
20260504120109 54 225 3.0 14.0 0.00 0.01 0.00 49 1010.9